Location: Bittkow
(50.3000°N, 19.0000°E)
Time: 03:22:47
(UTC+00:00)

Cosmos 1151 Rocket - Pass Details

Date: 19 September 2020
Orbit: 593 x 615 km, 82.5° (Epoch: 18 October)

Event Time Altitude Azimuth Distance (km) Brightness Sun altitude
Exits shadow 02:00:38 73° 280° (W) 637 2.9 -22.7°
Maximum altitude 02:00:38 73° 280° (W) 637 2.9 -22.7°
Drops below altitude 10° 02:05:00 10° 7° (N) 1,971 6.1 -22.1°
Sets 02:07:15 0° 9° (N) 2,883 7.1 -21.8°
